Temperature
3 3 2 3 3 2 2 3 3 3 3 5 5 4 4 4 5 5 5 5 5 6 6 6 6 5 5 5 4 4 4 4 4 4 3 3 3 3 3 3 3 2 2 2
2 3 2 3 3 3 3 3 3 3 3 4 4 4 4 4 4 4 5 5 5 5 5 5 5 5 4 4 4 4 4 3 3 3 3 3 3 2 2 2 2 2 2 1
1 1 2 2 2 3 2 2 3 4 4 3 3 3 3 3 4 4 4 4 4 4 4 4 4 3 3 3 3 3 3 3 3 2 2 2 2 2 1 1 1 1 1 1
-0 1 2 3 2 3 3 2 2 3 3 2 3 3 4 4 4 4 4 3 3 3 3 3 3 2 2 2 2 2 2 2 2 2 1 1 1 1 1 1 1 0 1 1
-0 0 1 2 2 1 2 2 1 2 1 2 2 2 2 3 3 3 3 3 2 2 2 2 2 2 2 2 2 2 1 1 1 1 1 1 0 0 0 0 0 -0 -0 0
-1 0 1 2 2 1 2 2 1 1 0 0 1 0 1 3 2 2 2 2 2 2 1 1 1 1 1 1 1 1 1 1 1 0 0 -0 -0 -0 -0 -1 -1 -1 -1 -0
-1 -0 -0 0 1 2 2 1 1 0 0 0 -0 1 1 2 2 2 1 1 1 1 1 1 0 0 0 0 0 -0 -0 -0 -0 -0 -0 -1 -1 -1 -1 -1 -1 -1 -1 -0
-2 -1 0 -0 0 0 0 0 0 0 1 0 1 1 1 1 1 1 1 1 0 0 0 0 -0 -0 -0 -0 -0 -1 -1 -1 -1 -1 -1 -1 -1 -1 -1 -2 -2 -1 -1 -1
-1 -0 -1 -1 -0 0 0 0 0 0 0 0 0 -0 -0 -0 -0 -0 -0 -0 -1 -1 -1 -1 -1 -1 -1 -1 -1 -1 -1 -1 -1 -1 -1 -1 -1 -2 -2 -2 -2 -2 -2 -1
-2 -2 -2 -1 -1 -0 -0 -0 -0 -0 -0 -0 -0 -1 -1 -1 -1 -1 -1 -1 -1 -1 -2 -1 -1 -1 -2 -2 -2 -2 -2 -2 -2 -2 -2 -2 -2 -2 -2 -2 -2 -2 -2 -2
-3 -3 -2 -1 -1 -1 -0 -0 -0 -1 -1 -1 -1 -1 -1 -2 -2 -2 -2 -2 -2 -2 -2 -2 -2 -2 -2 -2 -3 -3 -2 -2 -2 -2 -2 -2 -2 -2 -3 -2 -3 -3 -3 -2
-3 -3 -3 -2 -1 -1 -1 -1 -1 -2 -2 -2 -2 -2 -2 -2 -2 -3 -2 -2 -3 -3 -3 -2 -3 -2 -2 -3 -3 -3 -3 -3 -3 -3 -3 -3 -3 -3 -3 -3 -3 -3 -3 -3
-2 -2 -2 -2 -2 -2 -2 -2 -2 -2 -3 -3 -3 -3 -3 -3 -3 -3 -3 -3 -3 -3 -3 -3 -3 -3 -3 -3 -3 -4 -4 -4 -3 -3 -4 -4 -4 -4 -4 -3 -3 -3 -3 -3
-3 -3 -3 -3 -3 -3 -3 -3 -3 -3 -3 -4 -4 -4 -4 -4 -4 -4 -4 -4 -4 -4 -4 -4 -4 -4 -4 -4 -4 -4 -4 -4 -4 -4 -4 -4 -4 -4 -4 -4 -4 -3 -3 -3
-4 -4 -4 -4 -4 -4 -4 -4 -4 -4 -4 -4 -4 -4 -4 -4 -4 -4 -4 -4 -4 -4 -4 -5 -4 -4 -4 -4 -4 -4 -4 -4 -4 -4 -4 -5 -5 -5 -5 -4 -4 -4 -4 -3
-5 -5 -5 -5 -5 -5 -5 -5 -5 -5 -5 -5 -5 -5 -5 -5 -5 -5 -5 -5 -5 -5 -5 -5 -5 -5 -5 -5 -5 -5 -5 -5 -5 -5 -5 -5 -5 -5 -5 -5 -5 -5 -4 -4
-6 -6 -6 -6 -6 -6 -6 -6 -6 -6 -6 -6 -6 -6 -6 -6 -6 -5 -5 -6 -6 -6 -6 -6 -6 -6 -6 -6 -5 -5 -5 -5 -5 -5 -5 -6 -6 -6 -6 -6 -5 -5 -5 -5
-6 -6 -6 -6 -6 -7 -6 -6 -6 -6 -6 -6 -6 -6 -6 -6 -6 -6 -6 -7 -7 -6 -6 -6 -6 -6 -6 -6 -6 -6 -6 -6 -6 -6 -6 -6 -6 -6 -6 -6 -6 -6 -5 -5
-6 -7 -7 -7 -7 -7 -7 -7 -7 -7 -7 -7 -7 -7 -7 -7 -7 -7 -7 -7 -7 -7 -7 -7 -7 -7 -7 -6 -6 -6 -6 -6 -6 -6 -6 -6 -6 -6 -6 -6 -6 -6 -6 -5
-7 -7 -7 -7 -7 -7 -7 -7 -7 -7 -7 -8 -8 -8 -8 -8 -8 -8 -8 -8 -8 -8 -8 -8 -8 -7 -7 -7 -7 -7 -7 -7 -7 -7 -7 -7 -7 -7 -7 -6 -6 -6 -6 -6
-8 -8 -8 -8 -8 -8 -8 -8 -8 -8 -8 -8 -8 -8 -8 -8 -8 -8 -8 -8 -8 -8 -8 -8 -8 -8 -8 -8 -7 -7 -7 -7 -7 -7 -7 -7 -7 -7 -7 -7 -6 -6 -6 -6
-8 -8 -8 -8 -8 -8 -8 -8 -8 -8 -8 -9 -9 -9 -9 -9 -9 -9 -9 -9 -9 -9 -9 -9 -8 -8 -8 -8 -8 -8 -8 -8 -8 -7 -7 -7 -7 -7 -7 -7 -7 -6 -6 -6
-9 -9 -9 -9 -9 -9 -8 -8 -9 -9 -9 -9 -9 -9 -9 -9 -9 -9 -9 -9 -9 -9 -9 -9 -9 -9 -8 -8 -8 -8 -8 -8 -8 -8 -8 -7 -7 -7 -7 -7 -7 -7 -6 -6
-9 -9 -9 -9 -9 -9 -9 -9 -9 -9 -9 -9 -9 -10 -10 -10 -10 -10 -10 -9 -9 -9 -9 -9 -9 -9 -8 -8 -8 -8 -8 -8 -8 -8 -8 -8 -7 -7 -7 -7 -7 -7 -7 -7
-10 -10 -10 -9 -9 -9 -10 -10 -10 -10 -10 -10 -10 -10 -10 -10 -10 -10 -10 -10 -9 -9 -9 -9 -9 -9 -9 -8 -8 -8 -8 -8 -8 -8 -8 -8 -8 -7 -7 -7 -7 -7 -7 -7
-10 -10 -10 -10 -10 -10 -10 -10 -10 -10 -10 -10 -10 -10 -10 -10 -10 -10 -10 -10 -9 -9 -9 -9 -9 -9 -9 -9 -9 -8 -8 -8 -8 -8 -8 -8 -8 -8 -7 -7 -7 -7 -7 -6
-10 -10 -11 -10 -10 -11 -11 -11 -11 -11 -11 -11 -11 -10 -10 -10 -10 -10 -10 -10 -10 -9 -9 -9 -9 -9 -9 -9 -9 -9 -8 -8 -8 -8 -8 -8 -8 -8 -7 -7 -7 -7 -7 -6
Wind_Speed
3 2 3 5 7 9 10 10 9 8 9 10 7 5 4 3 2 1 2 2 2 3 3 3 3 3 3 3 4 4 3 4 6 7 6 7 7 7 7 7 8 8 9 9
2 2 3 4 7 11 11 10 10 8 10 7 5 2 3 3 3 3 4 4 3 3 3 4 4 3 4 4 4 4 4 5 6 6 7 7 7 7 7 8 8 8 9 9
2 1 1 7 9 12 8 8 9 12 10 3 3 4 5 5 5 5 5 4 4 4 4 4 3 3 4 4 4 4 5 6 6 7 7 7 8 7 8 8 8 9 9 9
2 2 7 7 3 6 9 8 8 6 4 4 5 5 4 4 4 4 3 4 4 3 3 3 3 4 4 4 4 5 6 7 7 7 8 8 7 8 8 8 8 8 9 9
3 4 7 6 2 3 5 5 5 7 5 3 1 2 3 2 1 2 3 3 3 3 3 3 3 3 4 5 5 5 6 7 7 7 8 8 8 9 8 7 8 8 9 9
3 4 6 4 2 1 3 3 2 4 4 2 1 2 5 3 2 2 3 2 2 3 2 3 4 3 3 5 5 6 7 8 7 7 7 8 8 8 7 7 8 9 9 9
4 5 6 5 3 2 4 5 2 1 3 3 4 5 4 3 3 3 3 3 2 2 2 3 4 3 4 5 6 7 8 8 7 7 7 7 7 7 7 8 8 8 10 9
4 4 7 2 2 3 4 1 1 1 1 2 3 2 2 2 3 3 3 3 3 3 4 4 4 3 5 7 7 7 7 7 7 7 7 7 7 8 7 7 8 9 9 9
7 6 2 1 2 2 1 1 1 2 2 1 2 3 3 3 3 3 4 4 3 3 5 5 4 3 6 8 7 7 7 8 8 8 7 7 7 8 7 6 6 8 7 8
3 4 3 2 2 1 1 1 2 2 2 1 2 4 4 4 4 4 4 4 4 4 5 6 6 5 6 7 7 7 8 8 8 8 8 7 6 6 6 6 7 7 7 8
4 4 3 2 2 2 2 2 2 2 2 3 3 4 4 4 4 5 5 4 4 4 6 7 7 6 6 6 6 7 8 8 8 7 7 7 7 6 7 7 7 8 7 7
5 4 3 4 3 2 2 3 3 3 4 3 2 3 4 4 4 4 5 5 5 5 6 7 7 7 7 6 5 6 7 7 7 6 6 6 6 8 9 9 13 12 11 10
3 3 3 3 2 2 2 3 3 2 2 4 4 3 4 4 5 5 5 5 6 6 7 7 7 8 7 6 6 6 7 7 6 6 6 6 6 6 8 10 11 11 12 12
2 2 1 2 3 3 3 3 3 3 3 3 3 3 3 4 5 5 5 6 6 6 6 6 7 8 7 6 6 6 6 8 8 6 6 6 6 6 6 7 8 8 9 12
3 2 2 3 2 3 3 3 3 4 4 4 4 3 4 5 6 6 6 6 6 6 6 6 7 8 7 6 6 7 6 5 6 5 5 5 5 5 5 6 6 7 7 8
4 3 2 1 2 3 3 3 3 4 5 5 5 5 5 5 5 6 6 5 5 7 7 7 8 8 7 6 7 6 6 9 8 6 4 4 5 5 5 5 6 6 6 6
2 2 3 3 4 4 3 3 3 4 5 5 5 6 6 5 5 6 6 5 5 6 7 7 8 8 8 7 6 5 5 6 9 6 4 4 5 5 5 5 5 5 5 6
2 3 3 3 3 4 4 4 4 4 5 6 6 5 5 5 6 7 7 6 6 7 7 7 8 8 7 7 5 5 5 5 4 4 4 4 4 4 4 5 5 6 5 6
2 2 2 2 2 3 4 4 5 5 5 5 5 5 6 6 6 6 6 6 7 8 8 7 11 8 7 8 7 4 4 5 4 4 4 6 6 4 4 4 5 5 5 4
3 3 3 3 3 3 3 4 5 5 5 5 5 6 6 6 6 6 6 6 6 6 7 8 8 7 7 7 8 4 4 4 4 4 4 4 4 4 4 5 5 4 4 4
4 4 4 4 4 4 4 4 4 5 6 5 5 6 6 7 6 6 6 7 7 7 8 10 7 6 6 6 7 4 4 3 4 4 4 4 4 4 4 4 4 4 4 3
3 3 4 4 4 5 5 4 4 5 6 5 5 5 6 7 7 6 6 6 7 10 8 6 5 7 8 8 4 4 3 4 3 3 3 3 4 4 4 4 4 4 3 3
4 4 4 4 5 5 6 5 4 5 5 5 6 6 6 6 6 6 7 6 6 10 7 6 8 10 10 6 4 4 4 4 3 3 3 3 4 4 4 4 3 3 3 3
4 4 5 5 4 4 5 5 5 5 5 6 6 6 5 5 5 4 5 9 11 11 7 8 11 11 9 4 4 3 3 3 3 3 3 3 3 4 4 3 3 3 3 3
4 4 4 4 4 4 5 5 5 5 5 5 5 5 5 4 5 6 6 7 9 9 6 8 10 10 6 4 4 3 3 3 3 3 3 3 3 3 3 3 3 3 3 2
4 4 4 4 4 4 4 4 4 5 5 5 5 5 5 5 5 5 5 6 7 8 6 5 6 6 4 4 3 3 3 4 4 4 3 3 3 3 3 3 3 2 2 2
4 4 4 4 4 4 4 4 4 5 5 5 6 6 6 5 5 5 5 5 5 5 5 4 4 4 4 3 3 3 3 3 3 3 3 3 3 3 3 3 2 2 2 2
Wind_Direction
242 237 176 201 200 190 200 202 205 225 228 253 260 259 259 255 267 291 292 289 279 285 290 298 302 301 298 300 306 309 310 304 295 294 291 290 291 291 291 289 288 285 284 282
251 231 215 242 224 210 220 222 230 247 256 250 260 251 254 251 251 263 271 278 285 289 297 300 294 297 307 310 311 314 305 297 299 301 299 295 294 295 296 294 292 290 287 285
232 303 38 256 223 206 208 209 203 230 243 229 253 253 247 247 249 255 268 276 278 284 282 283 286 291 295 299 309 311 301 299 301 302 300 296 296 299 295 293 292 293 291 287
157 119 228 245 218 202 215 229 216 227 239 221 233 256 262 248 236 252 275 286 296 300 299 298 301 305 306 310 312 307 303 302 304 305 303 302 302 299 296 294 293 292 292 290
166 214 269 291 260 178 198 247 223 226 242 243 259 330 306 288 222 246 264 275 280 288 294 302 305 308 316 315 313 309 304 304 305 305 305 304 303 300 300 299 299 295 293 290
170 198 234 258 284 220 133 271 279 213 228 225 99 277 275 300 321 306 307 299 298 313 321 314 308 316 317 310 311 305 303 303 304 302 301 298 296 298 299 298 296 298 297 294
196 222 257 268 292 126 167 245 305 218 215 197 211 232 266 303 319 321 322 317 320 330 319 301 305 318 312 308 301 299 304 307 306 304 301 294 295 298 299 299 300 300 299 297
173 211 250 300 114 174 221 281 328 322 255 233 253 275 299 312 318 325 329 333 333 327 313 309 310 313 307 301 299 306 309 309 306 305 304 304 300 301 300 299 302 303 303 303
195 214 244 188 200 235 208 219 289 295 294 269 278 286 296 301 305 308 315 318 315 305 307 309 306 296 294 298 306 310 310 308 305 306 303 300 295 297 300 298 299 300 300 300
236 258 252 263 277 300 262 240 279 288 293 284 277 282 290 301 306 306 307 305 305 306 304 304 305 299 288 298 307 309 307 307 307 306 306 304 297 293 293 295 296 297 299 299
244 271 301 286 258 263 291 301 313 312 297 281 278 287 287 296 301 300 302 300 297 292 292 296 302 301 301 302 307 308 306 306 308 305 299 302 301 295 293 285 285 292 292 292
228 231 224 257 266 279 288 295 298 304 312 315 289 283 293 294 296 298 300 303 303 299 297 299 302 302 303 304 302 302 306 308 306 305 306 306 308 312 309 305 307 308 305 301
234 269 255 275 317 350 311 306 310 304 295 306 306 292 288 290 296 299 302 305 302 300 299 300 303 303 306 308 305 298 297 301 302 303 304 307 309 310 314 319 319 319 320 319
338 353 312 316 313 331 332 328 334 332 324 311 306 307 303 301 302 303 303 303 301 300 300 301 303 303 307 307 305 302 299 301 302 297 299 301 302 303 306 311 319 323 325 327
345 323 272 293 326 347 349 353 352 339 337 333 326 316 311 306 304 303 304 306 307 307 307 307 305 306 312 311 307 304 303 301 300 299 299 300 302 305 308 309 311 316 323 329
317 333 355 359 348 345 347 349 335 321 323 320 320 315 310 305 303 304 309 311 310 309 310 311 308 311 314 312 309 308 304 307 310 306 307 310 310 310 311 313 316 319 323 328
345 333 339 333 331 327 321 312 301 302 310 314 314 315 316 315 313 314 315 314 305 302 304 304 306 312 313 312 309 305 304 307 311 310 312 311 309 310 311 313 315 318 320 329
259 260 260 264 276 296 308 315 313 310 308 309 314 316 313 309 305 307 310 314 315 312 308 304 306 311 313 312 307 302 303 303 305 306 310 312 311 308 308 310 314 317 323 331
324 312 307 300 290 286 293 303 308 309 310 311 309 304 299 298 299 301 306 311 312 311 312 313 317 321 317 314 315 303 302 304 307 310 310 314 316 317 318 318 318 320 322 326
338 336 334 326 321 305 298 301 303 305 307 305 304 305 307 306 305 305 306 302 296 293 301 309 313 313 311 311 315 308 307 306 308 311 312 313 314 317 318 319 320 320 321 326
331 332 332 328 321 316 304 299 301 304 307 305 300 299 301 304 305 303 304 304 306 308 309 312 315 312 312 314 313 308 306 306 308 308 310 313 315 318 321 323 326 328 329 330
322 320 319 317 315 315 315 310 302 302 306 308 306 304 305 308 310 306 291 285 298 310 315 308 306 310 318 316 309 308 308 307 306 307 308 311 312 314 316 321 325 327 332 339
318 316 317 317 312 309 311 312 309 306 304 306 306 304 301 299 300 300 302 305 308 312 314 305 311 316 321 319 311 309 310 310 309 308 306 306 306 308 311 316 321 327 333 338
326 326 323 319 318 318 319 319 318 311 305 303 301 299 297 301 302 292 287 302 312 313 311 310 318 321 323 320 315 312 309 307 306 305 304 304 304 307 310 314 320 327 331 332
326 324 324 327 327 318 312 315 318 317 317 315 312 312 306 294 290 297 300 301 308 314 314 318 322 324 324 317 316 311 305 300 300 303 301 302 304 307 308 310 316 319 322 325
324 320 314 307 302 304 310 313 313 313 315 315 316 317 316 310 302 299 299 302 305 312 314 310 313 317 317 315 313 313 309 306 307 307 304 300 299 301 302 306 307 308 311 313
326 325 325 327 327 321 315 311 308 308 309 308 309 313 316 314 311 309 307 308 309 311 311 311 312 313 312 312 311 311 310 306 302 299 297 294 294 294 298 299 301 302 303 303
Height
1436 1435 1437 1437 1439 1443 1444 1442 1445 1441 1440 1432 1430 1430 1430 1429 1429 1429 1430 1430 1430 1430 1431 1431 1430 1430 1429 1429 1428 1426 1425 1423 1421 1419 1417 1415 1412 1409 1406 1404 1401 1398 1395 1392
1436 1434 1435 1435 1435 1436 1436 1436 1437 1436 1435 1429 1428 1428 1428 1428 1428 1428 1428 1428 1428 1428 1428 1427 1427 1426 1425 1424 1423 1422 1420 1418 1417 1414 1412 1409 1406 1403 1401 1398 1395 1392 1388 1385
1439 1438 1435 1436 1429 1429 1430 1428 1430 1430 1426 1426 1427 1426 1426 1426 1425 1425 1426 1426 1426 1425 1425 1425 1424 1423 1421 1420 1419 1418 1416 1414 1412 1409 1406 1404 1401 1398 1395 1392 1388 1385 1382 1378
1443 1441 1439 1424 1421 1421 1422 1423 1424 1423 1422 1423 1423 1423 1423 1423 1423 1423 1423 1423 1423 1422 1422 1421 1421 1419 1418 1417 1415 1413 1412 1409 1407 1405 1402 1399 1396 1393 1390 1386 1383 1379 1375 1372
1441 1440 1434 1424 1420 1421 1422 1422 1421 1421 1421 1421 1422 1422 1421 1421 1421 1422 1421 1421 1420 1420 1419 1418 1417 1416 1414 1413 1411 1409 1407 1405 1402 1400 1397 1394 1391 1388 1384 1381 1377 1373 1370 1367
1439 1437 1432 1422 1419 1418 1420 1423 1419 1418 1419 1420 1421 1425 1421 1419 1419 1419 1419 1418 1417 1417 1416 1415 1414 1413 1411 1409 1407 1405 1403 1400 1398 1395 1392 1389 1386 1383 1380 1376 1372 1368 1365 1362
1436 1435 1429 1421 1418 1417 1424 1422 1418 1417 1417 1418 1419 1420 1419 1417 1417 1417 1416 1415 1414 1413 1412 1411 1410 1409 1407 1405 1403 1401 1398 1396 1393 1390 1388 1385 1381 1378 1375 1371 1367 1364 1360 1357
1435 1434 1429 1419 1418 1421 1420 1417 1417 1416 1416 1417 1417 1416 1416 1416 1415 1414 1413 1412 1411 1410 1409 1408 1407 1405 1403 1401 1399 1397 1394 1391 1388 1386 1383 1380 1377 1374 1370 1367 1363 1359 1356 1352
1424 1422 1418 1417 1416 1416 1417 1416 1416 1416 1415 1415 1415 1414 1414 1413 1413 1412 1411 1410 1408 1407 1406 1405 1404 1402 1400 1397 1395 1392 1389 1387 1384 1381 1378 1376 1372 1369 1365 1362 1359 1356 1352 1349
1421 1418 1416 1416 1415 1415 1415 1415 1415 1415 1414 1413 1413 1412 1412 1411 1410 1409 1408 1407 1405 1404 1402 1401 1400 1398 1396 1394 1391 1388 1385 1382 1379 1376 1373 1371 1368 1365 1362 1358 1355 1352 1349 1346
1418 1416 1414 1413 1414 1414 1414 1414 1413 1413 1412 1412 1411 1410 1409 1408 1407 1406 1404 1403 1402 1401 1399 1397 1396 1394 1392 1390 1387 1384 1380 1378 1375 1372 1369 1366 1364 1361 1358 1355 1353 1350 1346 1343
1415 1413 1413 1412 1412 1412 1412 1411 1411 1410 1409 1409 1408 1407 1406 1405 1404 1402 1401 1400 1398 1397 1395 1393 1391 1389 1388 1385 1383 1379 1376 1373 1370 1367 1365 1362 1359 1356 1354 1352 1349 1346 1343 1341
1410 1410 1410 1410 1410 1410 1410 1409 1408 1408 1407 1406 1405 1405 1403 1401 1400 1399 1398 1396 1394 1393 1391 1389 1387 1385 1383 1381 1378 1375 1372 1369 1367 1364 1361 1359 1356 1353 1349 1346 1344 1342 1339 1337
1408 1408 1408 1408 1408 1408 1407 1407 1406 1405 1404 1403 1402 1401 1400 1398 1397 1395 1394 1392 1391 1389 1387 1385 1383 1381 1379 1376 1374 1371 1368 1366 1363 1361 1358 1356 1353 1350 1347 1344 1340 1337 1335 1333
1407 1407 1407 1406 1406 1405 1405 1404 1403 1402 1401 1400 1399 1398 1397 1395 1393 1391 1390 1389 1387 1385 1383 1381 1378 1376 1374 1372 1369 1367 1364 1362 1360 1357 1355 1353 1350 1348 1345 1342 1339 1335 1332 1330
1405 1404 1404 1404 1403 1403 1402 1401 1400 1399 1398 1397 1396 1395 1394 1392 1390 1388 1387 1385 1383 1380 1378 1376 1374 1372 1370 1368 1365 1363 1360 1359 1357 1354 1352 1350 1348 1345 1343 1340 1337 1334 1331 1329
1403 1402 1402 1401 1401 1400 1400 1400 1399 1397 1396 1395 1393 1392 1390 1388 1386 1384 1383 1381 1379 1377 1375 1372 1370 1368 1366 1364 1361 1359 1357 1355 1354 1352 1349 1347 1345 1343 1340 1338 1336 1333 1331 1329
1402 1402 1401 1400 1400 1399 1398 1397 1396 1395 1394 1392 1391 1389 1387 1385 1383 1381 1379 1377 1375 1373 1371 1369 1367 1364 1362 1360 1358 1356 1354 1352 1350 1348 1346 1345 1343 1341 1339 1336 1334 1332 1330 1328
1400 1400 1399 1399 1398 1397 1396 1395 1394 1393 1391 1390 1388 1386 1384 1382 1380 1378 1376 1373 1371 1368 1366 1365 1363 1361 1359 1356 1355 1353 1351 1349 1347 1346 1344 1343 1341 1339 1337 1335 1333 1331 1329 1328
1398 1398 1397 1396 1395 1395 1393 1392 1391 1390 1388 1387 1385 1383 1381 1379 1377 1375 1372 1370 1368 1365 1363 1361 1359 1357 1355 1353 1352 1350 1348 1347 1345 1343 1342 1341 1339 1337 1336 1334 1332 1330 1329 1327
1396 1395 1394 1393 1392 1391 1390 1389 1388 1386 1385 1384 1382 1380 1377 1375 1374 1371 1369 1366 1364 1363 1360 1358 1356 1354 1352 1351 1349 1347 1346 1344 1343 1342 1340 1339 1338 1336 1335 1333 1331 1330 1328 1327
1394 1393 1392 1391 1389 1388 1387 1386 1385 1383 1382 1380 1378 1376 1374 1372 1370 1368 1366 1363 1361 1359 1357 1355 1353 1351 1350 1348 1347 1345 1344 1343 1341 1340 1339 1338 1336 1335 1334 1332 1331 1330 1329 1328
1392 1391 1390 1388 1387 1385 1384 1383 1382 1381 1379 1377 1375 1373 1371 1369 1366 1364 1361 1360 1358 1356 1354 1352 1350 1349 1347 1346 1344 1343 1342 1341 1340 1339 1338 1337 1335 1334 1333 1332 1331 1330 1329 1328
1390 1389 1388 1386 1385 1383 1381 1380 1379 1378 1376 1374 1372 1370 1367 1365 1362 1361 1359 1357 1355 1353 1351 1349 1347 1346 1344 1343 1342 1341 1340 1339 1338 1337 1336 1335 1334 1333 1332 1331 1330 1329 1329 1328
1389 1387 1386 1384 1382 1381 1379 1377 1376 1374 1372 1370 1368 1366 1364 1362 1360 1357 1355 1353 1351 1350 1348 1346 1345 1343 1342 1340 1339 1338 1337 1337 1336 1335 1334 1334 1333 1332 1331 1330 1330 1329 1329 1328
1387 1385 1384 1382 1381 1379 1377 1375 1373 1371 1369 1367 1365 1363 1361 1359 1357 1355 1353 1351 1349 1347 1345 1343 1342 1341 1339 1338 1337 1336 1335 1335 1334 1333 1333 1332 1332 1331 1330 1330 1329 1329 1328 1328
1385 1384 1382 1380 1379 1377 1375 1373 1371 1369 1367 1364 1362 1360 1358 1356 1354 1352 1350 1348 1346 1345 1343 1341 1340 1339 1337 1336 1335 1334 1333 1333 1332 1332 1331 1331 1330 1330 1329 1329 1329 1329 1328 1328